Location: Mount Tamalpais State Park
(37.9108°N, 122.6128°W)
Time: 05:15:17
(UTC-07:00)

Daily predictions for brighter satellites

Satellite Brightness Start Highest point End
(mag) Time Altitude Azimuth Time Altitude Azimuth Time Altitude Azimuth
ATLAS 2AS CENTAUR R/B 4.3 02:47:44 33° NE 02:47:44 33° NE 02:51:49 10° NE
CZ-2D R/B 4.3 03:30:23 10° NNE 03:32:06 21° NNE 03:32:06 21° NNE
Cosmos 2344 4.1 03:36:25 53° E 03:36:25 53° E 03:43:54 10° NE
SL-16 R/B 4.1 03:48:05 25° N 03:48:05 25° N 03:50:31 10° N
Lacrosse 5 4.0 03:59:42 22° E 03:59:42 22° E 04:02:27 10° ENE
Cosmos 2333 Rocket 4.2 03:55:35 10° N 04:00:16 25° ENE 04:04:56 10° ESE
Resurs 1-4 Rocket 3.7 04:02:45 10° N 04:05:07 27° N 04:05:07 27° N
Cosmos 1821 Rocket 4.3 04:04:52 10° N 04:10:11 62° NNE 04:10:11 62° NNE
CZ-4C R/B 2.8 04:11:39 83° N 04:11:57 86° ENE 04:19:51 10° SSE
NOSS 3-4 (A) 4.2 04:13:49 45° SE 04:14:24 46° ESE 04:20:32 10° NE
NOSS 3-4 (C) 4.2 04:13:53 44° SE 04:14:30 46° ESE 04:20:38 10° NE
Cosmos 1934 Rocket 4.2 04:10:42 10° N 04:16:58 68° E 04:17:28 65° ESE
CZ-4B R/B 4.2 04:22:29 10° NNE 04:27:35 41° E 04:29:48 29° SSE
Cosmos 2237 Rocket 3.7 04:25:07 10° N 04:30:16 35° ENE 04:35:22 10° SE
Okean O Rocket 2.7 04:28:17 10° NNE 04:31:36 43° NE 04:31:36 43° NE
ATLAS 2AS CENTAUR R/B 4.2 04:35:11 26° NW 04:35:43 27° NW 04:42:21 10° NNE
Cosmos 2219 4.3 04:41:56 32° NNW 04:41:56 32° NNW 04:45:32 10° N
ATLAS 5 CENTAUR R/B 3.6 04:37:56 10° NNW 04:43:35 40° NE 04:49:36 10° ESE
Cosmos 1743 3.9 04:44:53 10° N 04:48:32 42° E 04:49:02 39° ESE
Delta 2 Rocket 4.5 04:54:27 33° ESE 04:54:27 33° ESE 04:56:39 10° E
Okean 1-7 Rocket 4.0 04:56:50 52° N 04:56:50 52° N 05:00:14 10° N
CZ-4B R/B 3.1 04:55:10 10° NNE 04:59:33 80° ESE 05:00:06 67° SSE
Cosmos 2227 Rocket 2.1 04:59:04 47° SSW 05:00:48 86° ESE 05:06:31 10° NNE
Cosmos 773 Rocket 3.8 05:01:08 10° NNW 05:06:20 69° WSW 05:11:27 10° S
NOSS 3-2 (A) 4.0 04:59:05 10° NNW 05:06:43 85° ENE 05:14:51 10° SSE
Cosmos 1607 4.2 05:07:37 43° SW 05:07:37 43° SW 05:12:36 10° S
ADEOS II 3.0 05:03:48 10° NNE 05:08:53 48° E 05:13:57 10° S
Cosmos 2297 Rocket 2.3 05:07:17 26° S 05:10:33 74° ESE 05:16:13 10° NNE
ISS -1.1 05:13:16 18° SSE 05:13:16 18° SSE 05:14:18 10° SE
USA 238 DEB 4.0 05:10:39 41° WSW 05:11:06 41° WSW 05:17:35 10° S
USA 238 4.0 05:10:33 41° W 05:11:12 42° WSW 05:17:41 10° S
Cosmos 2219 Rocket 2.1 05:06:01 10° NNW 05:11:39 66° WSW 05:17:16 10° S
Lacrosse 5 rocket 3.5 05:12:56 18° NNW 05:12:56 18° NNW 05:15:54 10° N
Okean 2 4.5 05:09:09 10° SSE 05:13:07 44° E 05:17:05 10° NNE
CZ-2D R/B 3.9 05:11:33 10° NNW 05:13:26 16° NW 05:13:26 16° NW
Cosmos 220 Rocket 3.8 05:17:47 55° SSW 05:18:39 80° WNW 05:22:53 10° NNE
PSLV R/B 3.8 05:15:01 10° NNE 05:19:21 70° ESE 05:23:09 13° S
CZ-4B DEB 4.1 05:17:04 10° N 05:22:30 67° WNW 05:25:56 23° SSW
Cosmos 1727 Rocket 4.0 05:21:08 24° SSW 05:24:48 55° W 05:30:59 10° N
PAYLOAD B 4.4 05:23:43 10° N 05:29:01 51° WNW 05:31:47 27° SW
Okean-O 2.7 05:27:55 10° NNE 05:32:22 78° ESE 05:36:48 10° S
OTV 4 0.3 05:35:21 63° SSE 05:35:21 63° SSE 05:37:52 10° ESE
Cosmos 2173 Rocket 4.1 05:30:48 10° N 05:36:54 79° E 05:43:02 10° S
Cosmos 2228 4.2 05:32:58 10° N 05:37:12 45° E 05:41:24 10° SSE
Cosmos 2112 Rocket 3.9 05:32:07 10° NNW 05:37:25 76° WSW 05:42:38 10° S
Cosmos 2082 3.9 05:36:36 27° WSW 05:39:23 48° WNW 05:44:50 10° N
Lacrosse 5 2.1 05:38:55 30° WSW 05:41:06 50° NW 05:46:02 10° NNE
Cosmos 1680 Rocket 3.5 05:37:30 10° NNW 05:42:40 57° WSW 05:47:47 10° S
NOSS 3-2 (C) 4.0 05:35:48 10° NW 05:43:24 72° WSW 05:51:30 10° SSE
Cosmos 2333 Rocket 2.5 05:39:19 10° NW 05:44:42 44° WSW 05:50:02 10° S
Cosmos 2058 Rocket 3.1 05:40:25 10° N 05:44:47 81° E 05:49:08 10° S
Cosmos 1459 Rocket 4.0 05:41:11 10° N 05:47:35 83° W 05:53:53 10° S
CENTAUR R/B 4.2 05:40:52 10° NNW 05:48:19 45° NE 05:56:12 10° ESE
Aureole 2 Rocket 4.2 05:50:06 10° N 05:53:21 33° ENE 05:56:18 10° SE
ADEOS Rocket 3.4 05:47:21 10° N 05:54:20 53° WNW 06:00:37 10° SW
Cosmos 2298 Rocket 4.0 05:50:54 10° SSW 05:56:12 80° WNW 06:01:32 10° NNE
COSMO-SKYMED 1 4.3 05:54:21 10° SE 05:58:19 36° ENE 06:02:18 10° N
Tiangong 1 1.7 05:58:27 24° WNW 05:59:52 41° NNW 06:02:47 10° ENE
CZ-4C R/B 4.0 05:57:13 16° W 05:59:55 19° WSW 06:05:04 10° SSW
RESURS DK-1 3.1 05:58:42 20° WSW 06:00:47 33° WNW 06:04:33 10° N
Cosmos 1666 3.0 05:57:26 10° NNW 06:01:09 45° W 06:04:48 10° SSW
Thor Agena Rocket 4.0 05:57:28 10° SSW 06:02:22 39° W 06:07:20 10° NNW
Hubble Space Telescope 2.9 06:01:16 12° SW 06:02:48 14° SSW 06:04:57 10° SSE
USA 129 1.3 06:02:51 10° S 06:04:55 72° WSW 06:06:52 10° NNW
NOSS 3-4 (A) 4.4 06:01:18 17° W 06:05:26 33° NW 06:11:17 10° NNE
NOSS 3-4 (C) 4.4 06:01:22 17° W 06:05:32 33° NW 06:11:23 10° NNE
CZ-4B R/B 4.3 06:03:39 10° NNW 06:07:53 24° WNW 06:11:41 12° WSW
Okean O Rocket 3.4 06:06:28 10° NW 06:08:29 13° WNW 06:09:02 13° WNW
BREEZE-M DEB (TANK) 3.6 06:06:05 10° NNW 06:08:30 32° NE 06:11:53 10° ESE
Meteor 2-4 Rocket 4.2 06:03:07 10° SW 06:08:31 40° WNW 06:14:04 10° N
Cosmos 292 Rocket 3.8 06:04:14 10° NNW 06:09:02 59° WSW 06:13:47 10° S
Cosmos 2150 Rocket 3.9 06:06:21 10° SSW 06:11:28 66° WNW 06:16:36 10° NNE
Cosmos 2237 Rocket 2.9 06:09:21 10° NW 06:14:10 30° WSW 06:18:57 10° SSW
SL-24 R/B 4.3 06:10:23 10° NNE 06:14:48 70° E 06:18:42 10° S
Cosmos 1025 Rocket 4.5 06:13:11 13° WSW 06:15:18 18° WNW 06:18:19 10° NNW
Cosmos 2098 Rocket 2.9 06:12:52 10° NNW 06:16:39 72° W 06:21:26 10° S
Cosmos 1346 Rocket 3.9 06:13:42 10° SW 06:16:55 24° WNW 06:20:11 10° NNW
Cosmos 1626 Rocket 3.5 06:15:45 10° S 06:20:08 81° W 06:24:32 10° N
CZ-4B R/B 3.9 06:16:52 10° N 06:20:44 52° WNW 06:24:24 10° SSW
CZ-3A R/B 3.6 06:20:15 10° NW 06:24:52 89° SW 06:39:32 10° SE
DELTA 2 R/B (1) 3.6 06:21:31 10° WSW 06:27:05 84° SSE 06:32:42 10° ENE
ATLAS 5 CENTAUR R/B 3.0 06:22:42 10° NW 06:28:19 37° WSW 06:34:13 10° S
Cosmos 2061 Rocket 4.4 06:22:40 10° NNW 06:28:27 40° W 06:34:17 10° SSW
Ariane Rocket 3.2 06:23:39 10° NNE 06:28:47 80° ESE 06:33:53 10° S
Cosmos 990 Rocket 4.0 06:24:33 10° SSW 06:29:48 80° WNW 06:35:05 10° NNE
OPS 6432 4.4 06:27:24 10° SW 06:30:55 58° WNW 06:33:59 10° NNE
Radarsat Rocket 4.2 06:24:51 10° NNE 06:31:43 81° WNW 06:37:48 10° SSW
SL-16 R/B 2.4 06:27:05 10° NNW 06:32:34 50° WSW 06:38:00 10° S
Cosmos 1802 Rocket 4.4 06:29:44 10° NNW 06:35:22 39° W 06:40:58 10° SSW
Delta 2 Rocket 3.2 06:31:52 10° W 06:35:26 53° S 06:38:45 10° ESE
SeaSat 1 3.3 06:32:36 10° SE 06:37:24 57° ENE 06:42:15 10° NNW
Cosmos 1066 Rocket 4.5 06:32:55 10° S 06:38:28 79° E 06:44:13 10° NNE
Cosmos 2233 Rocket 4.4 06:33:41 10° N 06:39:59 75° E 06:46:11 10° SSE
CZ-3A R/B 3.9 06:41:39 10° SW 06:44:23 13° SSW 06:46:06 10° S
